Theta_e
317 317 317 316 316 316 316 315 315 315 315 315 315 315 316 316 307 295 292 300 308 318 316 298 297 297 298 295 296 292 286 282 285 286 288 293 292 290 290 287 286 286 286 286 288
317 316 316 316 316 315 315 315 315 314 314 314 314 314 316 316 291 288 298 314 316 317 300 295 294 295 292 292 292 289 285 286 289 289 290 293 292 289 289 286 284 284 286 287 286
316 316 315 315 315 314 314 314 314 314 314 314 313 314 315 310 289 284 308 313 314 311 298 297 295 293 289 289 288 286 285 290 292 293 295 292 290 291 288 286 286 284 283 284 284
315 315 315 314 314 313 313 313 313 313 313 312 313 315 315 297 281 288 309 310 311 303 297 295 292 288 286 285 288 285 289 290 293 294 293 291 290 285 285 283 286 286 284 283 282
315 314 314 313 313 313 312 312 313 312 311 312 313 315 301 287 285 292 305 299 294 297 295 294 290 288 286 286 287 287 288 290 291 292 290 290 286 285 281 283 284 284 283 281 280
315 314 313 312 312 312 312 312 312 312 311 312 314 314 292 283 290 292 291 292 292 294 293 294 291 291 288 286 284 287 290 289 289 290 290 288 283 285 281 283 282 282 280 280 280
315 314 312 312 311 311 311 312 312 312 312 312 312 299 289 286 291 292 292 290 291 292 292 292 293 291 290 287 289 289 286 286 287 289 288 288 284 284 282 282 280 279 279 279 279
314 313 312 311 311 311 310 311 312 312 312 312 311 291 285 293 292 292 291 290 292 293 293 293 292 292 289 288 285 283 282 280 283 288 287 286 280 280 281 281 278 277 276 277 278
313 313 312 311 310 310 310 310 311 311 311 312 294 291 286 297 290 291 290 289 290 291 293 296 293 288 287 283 279 279 276 277 279 285 285 284 281 279 280 281 278 276 275 276 276
313 312 311 309 310 312 308 306 307 300 297 297 293 288 288 287 290 291 290 291 288 290 291 290 287 283 282 280 276 277 276 276 276 278 281 281 281 277 279 279 278 276 275 275 275
312 311 310 309 310 309 296 290 288 288 288 284 284 285 288 290 292 289 289 289 288 288 282 284 280 278 279 280 280 280 277 276 276 279 277 279 279 281 278 278 276 275 274 274 275
311 311 310 309 308 303 292 286 285 285 283 287 288 287 289 289 286 288 290 285 286 281 283 281 279 280 283 283 281 279 278 276 278 280 277 276 277 280 278 279 278 276 274 274 273
311 310 308 307 306 292 288 288 292 290 283 286 286 285 286 288 283 284 286 284 283 281 281 279 280 283 282 280 280 278 276 276 276 278 275 274 275 277 277 278 280 278 277 276 275
310 309 306 304 295 288 286 289 291 291 283 285 283 285 286 286 282 287 286 283 281 279 278 278 280 280 279 279 279 278 278 279 277 274 271 272 272 276 273 274 277 274 275 275 275
310 309 305 298 287 286 288 289 291 291 273 283 283 287 285 282 282 283 285 283 278 278 278 277 277 277 278 278 278 277 278 277 275 269 267 270 270 274 272 272 272 270 273 274 276
309 307 303 292 287 287 290 292 292 284 273 282 282 280 280 281 281 282 282 282 280 277 276 275 277 277 277 277 278 278 277 276 273 272 266 269 272 283 272 271 268 269 271 273 273
309 304 296 292 288 290 291 291 285 279 285 282 280 280 279 278 279 278 278 276 275 275 274 275 274 276 278 275 277 276 274 268 270 264 270 269 268 277 267 267 269 269 269 270 272
307 302 296 293 291 291 290 291 280 285 285 282 281 279 278 278 277 277 275 274 273 275 273 273 273 274 277 276 275 275 274 275 272 267 268 270 265 273 265 266 266 269 269 270 270
305 297 295 294 292 290 291 284 284 285 286 281 279 277 277 277 277 276 274 274 276 276 276 270 273 275 277 277 276 274 267 275 273 268 266 268 269 268 267 266 265 266 268 266 267
300 295 295 294 293 294 290 288 286 288 283 282 282 282 279 278 278 275 277 278 278 278 277 274 271 273 275 275 275 274 275 268 269 268 264 264 261 271 265 264 265 264 262 263 263
299 294 291 293 293 293 284 286 290 290 286 282 281 283 280 278 277 276 279 280 280 277 278 275 274 270 272 268 270 270 267 268 274 273 267 263 267 260 261 263 262 263 266 262 264
296 290 291 291 284 287 286 287 291 286 284 283 281 282 281 279 277 276 277 281 279 278 276 277 272 268 270 266 264 266 268 269 271 265 265 264 268 262 263 267 268 268 269 267 267
291 287 292 291 284 281 283 285 285 282 281 281 282 282 281 280 279 276 277 278 278 278 276 275 272 266 270 266 265 263 263 266 268 272 270 266 268 264 267 267 268 266 264 266 267
289 285 283 285 284 286 285 283 282 284 283 283 282 280 278 277 279 282 277 277 278 278 283 282 272 270 274 270 266 264 266 269 272 269 266 270 269 264 267 267 266 265 266 263 267
292 288 287 278 280 282 286 287 283 282 281 281 279 279 278 277 274 275 276 276 277 280 278 278 269 267 269 271 270 269 264 267 267 271 269 267 271 268 270 270 267 267 267 268 269
289 287 285 285 284 283 285 284 284 283 279 278 279 279 279 280 280 277 276 275 275 276 275 276 269 265 264 270 272 270 271 270 270 270 271 272 272 264 261 263 264 265 266 266 266
289 289 291 287 282 282 283 286 286 287 282 283 281 280 277 278 280 279 280 279 280 274 272 272 269 266 265 266 266 263 264 267 264 253 267 267 265 254 256 257 259 261 261 260 261
Wind_Speed
15 14 14 14 14 14 13 13 12 13 12 11 11 12 13 14 8 6 4 5 9 17 16 9 3 5 4 3 4 2 6 4 8 8 6 6 6 3 2 7 4 4 3 3 10
14 14 14 14 14 13 13 13 13 13 12 11 10 10 11 11 3 6 4 14 14 14 7 8 6 7 4 3 4 5 4 10 7 6 6 7 5 9 6 5 3 4 6 7 7
16 16 15 14 14 14 13 13 12 12 11 10 9 10 10 5 2 2 14 16 15 10 2 2 3 3 4 3 3 1 4 5 2 3 7 7 5 3 10 3 6 8 11 6 9
16 17 16 16 15 15 15 14 12 12 11 9 9 10 10 1 1 2 18 19 15 7 1 2 3 3 3 1 2 5 2 2 4 4 5 8 8 5 4 3 3 14 11 6 9
14 15 16 17 17 17 15 13 11 9 9 9 8 9 2 2 2 5 17 12 5 4 3 2 2 3 5 4 1 3 3 4 4 8 7 8 4 7 3 4 11 14 11 10 9
14 14 15 16 16 16 15 13 10 9 8 8 8 7 1 2 2 6 8 6 6 4 3 5 1 1 5 2 2 3 4 4 2 5 5 6 3 1 4 6 11 12 10 8 10
16 17 16 16 15 16 16 16 13 10 8 8 7 2 3 2 2 6 8 2 2 2 2 2 2 3 3 4 2 5 5 2 3 5 4 8 1 6 8 9 10 10 9 8 7
16 18 19 19 17 14 14 14 14 12 11 8 6 1 1 2 1 6 8 2 4 2 1 1 1 4 3 2 6 4 5 3 1 5 1 4 7 3 12 14 10 9 7 8 6
17 18 18 19 19 18 16 14 11 10 10 7 1 1 1 2 4 5 4 4 7 3 1 2 5 4 3 5 3 5 4 4 3 2 4 5 5 4 8 10 10 9 8 8 7
16 18 18 19 19 18 18 5 3 5 4 0 2 1 5 4 5 5 4 4 3 3 3 6 5 4 3 3 7 6 4 4 4 1 3 3 7 4 9 9 12 11 9 8 8
15 17 19 19 19 17 9 4 7 3 9 2 3 3 3 7 3 3 4 5 1 6 2 3 3 5 4 3 1 4 3 3 2 2 1 7 7 8 12 8 9 9 9 8 8
13 15 18 21 19 12 4 6 2 1 6 1 2 2 1 2 4 4 8 1 2 3 2 4 4 1 2 2 2 2 2 3 1 1 1 4 10 9 16 16 18 17 15 13 8
14 15 15 17 12 6 4 4 1 2 0 2 1 2 3 3 1 5 6 3 4 3 2 5 1 1 2 2 4 1 3 2 2 3 2 6 8 7 3 2 9 10 12 13 14
10 14 16 17 4 2 2 2 2 1 4 3 2 2 2 2 2 2 2 2 4 4 3 1 1 2 2 2 3 3 2 4 3 4 4 2 9 6 4 5 7 10 14 15 15
7 10 13 8 2 2 1 1 2 2 4 1 0 1 2 3 3 3 1 2 3 4 4 3 3 3 3 1 1 2 3 5 3 4 5 2 1 2 3 6 9 6 8 11 13
4 7 10 1 2 2 2 2 1 7 9 1 2 1 2 2 2 5 3 5 2 3 3 1 1 1 1 3 3 8 5 5 4 3 3 8 6 25 7 5 2 5 8 12 10
7 2 3 1 3 3 3 1 4 4 1 2 2 2 1 1 1 3 3 1 4 3 3 0 2 0 2 5 5 5 5 3 5 3 8 4 2 13 3 1 2 7 8 9 9
6 5 3 2 0 0 1 3 6 3 5 2 2 0 4 2 2 0 2 3 2 4 3 4 6 6 3 1 5 4 5 6 7 4 4 1 10 9 4 4 4 4 6 7 7
12 2 1 3 3 2 3 4 8 7 3 7 1 2 3 1 2 0 5 5 6 9 9 5 5 1 4 3 2 4 3 3 6 3 2 5 9 3 3 4 5 5 8 7 5
4 1 2 5 5 4 2 6 6 4 7 2 6 8 7 4 3 3 4 4 3 4 2 2 3 2 1 1 3 4 2 5 4 4 6 6 8 9 3 3 3 3 4 3 2
3 2 2 6 4 3 6 8 8 6 7 8 8 7 8 7 6 6 4 4 4 4 4 4 4 1 2 6 9 1 1 3 3 3 5 3 9 4 4 2 5 3 4 3 2
5 5 2 3 4 2 8 8 6 6 3 6 3 7 9 9 7 6 9 7 8 8 9 6 5 4 10 1 1 3 6 6 6 6 3 1 10 2 1 2 6 5 5 3 3
4 3 3 5 6 4 4 4 6 7 7 7 7 7 5 9 4 8 5 2 6 6 8 7 1 2 6 5 5 3 4 3 2 3 10 4 9 1 1 3 4 5 3 3 3
3 4 2 1 0 4 7 5 6 3 4 5 6 5 4 6 5 6 6 2 5 4 5 7 5 9 12 5 6 4 5 6 7 6 4 20 9 5 7 8 5 3 3 1 1
4 4 5 5 6 6 5 8 7 7 4 6 3 13 8 5 2 6 5 3 2 5 3 4 8 5 3 4 4 7 6 10 14 19 13 8 18 5 9 9 5 3 1 2 2
6 5 2 1 2 15 11 10 13 4 10 7 12 7 7 10 10 6 7 5 5 2 5 1 3 3 5 4 8 16 14 14 16 17 18 16 20 3 3 3 2 4 3 4 5
2 1 4 6 5 5 5 13 15 12 5 1 11 6 7 7 5 4 3 4 4 7 5 5 6 4 6 2 3 14 8 14 4 1 8 14 5 1 1 2 4 6 6 8 8
Wind_Direction
3 358 359 354 352 347 348 347 338 334 339 340 344 344 346 340 346 39 48 294 321 325 335 303 306 344 41 64 45 127 71 156 194 162 165 161 124 44 63 104 61 18 62 78 117
1 356 353 350 347 342 341 341 334 335 333 334 339 337 339 339 6 56 284 330 329 332 1 360 350 351 43 33 21 82 116 200 177 168 163 146 128 149 149 129 76 83 78 88 90
355 354 349 349 346 342 336 332 331 335 329 330 342 330 327 328 335 1 333 333 332 345 211 276 298 9 59 28 10 124 163 163 160 144 131 124 97 104 132 211 185 183 154 120 104
356 353 348 347 343 339 338 340 343 339 335 335 332 323 321 298 314 297 338 334 333 326 166 291 14 61 80 142 330 96 73 106 142 113 111 142 114 83 30 5 262 126 125 106 100
357 353 350 346 344 342 340 339 338 333 327 323 329 331 318 29 293 325 333 334 5 9 44 11 89 127 155 150 98 94 141 68 73 91 89 99 56 137 79 81 98 106 103 108 105
353 351 350 347 342 338 333 329 319 309 315 318 331 337 30 268 306 321 336 352 19 6 5 31 103 205 109 104 138 128 94 107 115 127 127 108 144 139 177 138 106 111 113 114 118
349 347 346 346 346 342 337 325 309 309 312 314 335 19 82 238 325 338 1 317 326 319 42 49 19 35 108 107 144 125 85 66 157 175 143 136 231 228 141 143 126 126 129 124 123
349 348 346 343 339 334 327 315 308 299 304 302 324 55 201 286 286 16 339 306 340 313 66 339 360 98 59 117 28 76 58 136 219 146 156 145 251 136 157 149 150 145 141 136 127
346 345 344 341 336 328 318 311 299 301 309 297 260 124 264 337 37 316 27 324 297 317 49 66 65 82 53 96 34 4 212 195 281 189 141 180 255 129 167 163 162 165 160 153 138
341 341 341 340 336 329 322 304 304 347 334 209 61 8 19 318 300 328 322 335 14 332 47 48 54 77 44 104 219 203 223 228 225 330 163 211 253 156 187 181 182 175 171 163 158
337 339 338 338 338 340 350 11 15 355 43 121 270 278 339 304 257 352 349 331 309 55 135 11 87 208 221 199 102 127 185 225 120 13 205 240 268 203 188 201 188 183 176 172 164
333 338 340 336 334 346 45 71 123 184 314 10 291 298 321 338 322 350 0 52 69 143 119 32 222 135 123 106 137 138 158 228 187 55 346 354 270 241 176 211 199 182 185 176 156
326 333 338 338 334 24 75 106 28 186 145 315 19 324 305 360 74 312 11 336 58 104 161 165 154 250 145 113 130 102 175 174 202 342 83 333 273 230 148 15 182 190 182 176 168
317 329 339 333 40 296 37 125 92 348 43 274 350 351 335 354 11 334 18 63 43 149 123 167 356 155 130 164 138 196 177 107 76 75 230 12 283 253 164 162 196 178 178 172 168
301 326 338 31 202 21 92 111 106 75 352 151 289 240 334 58 306 19 357 343 131 131 111 240 163 167 196 186 282 176 106 109 112 99 56 308 39 173 151 221 210 183 165 164 170
275 321 336 2 59 144 136 121 59 47 256 347 279 300 3 33 12 314 26 52 128 95 47 101 320 10 123 68 11 149 82 56 55 87 300 195 165 280 179 211 79 167 176 173 162
207 346 24 359 318 147 118 122 21 176 51 212 214 4 21 284 13 40 22 281 164 92 243 30 217 63 141 83 20 61 79 331 326 11 244 337 320 274 277 252 206 192 178 169 157
156 117 118 146 16 233 142 49 207 227 224 91 147 140 228 174 187 92 104 271 239 111 107 178 304 172 173 167 179 183 154 171 238 220 273 40 240 257 236 290 271 250 147 138 136
139 102 244 177 136 55 258 176 209 210 145 149 98 212 257 239 231 124 208 218 217 182 177 143 264 60 40 13 70 193 165 201 96 90 17 228 290 316 336 2 18 107 128 149 149
133 201 184 100 118 102 267 242 246 169 127 141 190 192 215 196 192 197 196 201 219 173 128 230 316 7 33 95 40 140 159 68 1 212 238 279 275 241 320 300 26 58 107 76 79
147 190 113 147 212 100 206 216 229 203 149 177 211 229 212 192 198 205 223 244 177 131 102 139 121 321 63 202 179 98 252 34 117 203 203 265 259 225 217 236 158 108 90 75 10
152 220 28 235 168 240 201 183 201 189 150 206 220 215 195 188 198 237 215 219 165 155 163 195 150 204 213 189 173 155 204 166 170 229 234 111 274 319 202 75 127 101 83 82 58
157 116 337 293 194 200 268 229 214 167 189 174 217 213 204 191 219 201 205 37 151 164 165 188 213 326 304 358 6 194 223 165 127 91 215 177 252 193 9 85 75 106 71 37 87
123 168 94 251 353 241 189 226 219 205 177 171 171 146 191 214 248 208 227 158 173 187 178 158 164 192 245 182 135 197 205 200 200 218 201 235 259 216 210 196 177 131 126 121 127
182 209 185 182 233 220 184 185 187 206 213 179 209 214 181 200 247 229 164 143 159 204 107 154 231 193 226 182 189 210 191 190 207 224 217 255 235 209 197 198 164 139 245 266 263
162 146 250 206 139 199 192 198 198 186 157 221 217 193 184 204 195 176 139 177 181 138 144 162 234 86 290 250 227 260 237 222 217 227 245 256 259 45 57 59 168 222 226 260 254
143 16 149 166 156 173 213 213 218 184 203 126 213 153 185 223 108 73 46 59 145 159 156 157 140 133 256 36 30 284 235 214 226 36 223 242 256 154 151 228 225 229 220 234 240